Regional Weather Roundup
Issued by NWS

Home | Current Version | Previous Version | Graphics & Text | Print | Product List | Glossary On
Versions: 1 2 3 4 5 6 7 8 9 10 11 12 13 14 15 16 17 18 19 20 21 22 23 24 25 26 27
000
ASUS45 KBOU 090007
RWRCO

WEATHER ROUNDUP FOR COLORADO
NATIONAL WEATHER SERVICE DENVER/BOULDER CO
500 PM MST THU DEC 08 2016

NOTE: "FAIR" INDICATES FEW OR NO CLOUDS BELOW 12000 FEET WITH NO
SIGNIFICANT WEATHER AND/OR OBSTRUCTIONS TO VISIBILITY.

COZ001>005-013-030-031-090100-
...NORTHWEST COLORADO...

CITY           SKY/WX    TMP DP  RH WIND       PRES   REMARKS
CRAIG          CLOUDY    19  12  74 E8        30.21S WCI   9
HAYDEN         FAIR      14   9  79 SE9       30.20S WCI   2
MEEKER         CLOUDY    24  14  65 NW6       30.18F WCI  17
MOUNT WERNER   NOT AVBL
STEAMBOAT SPGS CLOUDY    11   8  87 CALM      30.19F VSB 3/4
WALDEN           N/A     18   9  68 SE8       30.13S WCI   7
$$

COZ006>008-011-090100-
...WEST CENTRAL VALLEYS...

CITY           SKY/WX    TMP DP  RH WIND       PRES   REMARKS
GRAND JUNCTION CLOUDY    29   8  41 W3        30.26S
MONTROSE       CLOUDY    28   9  44 W3        30.26S
EAGLE          LGT SNOW  19   9  63 NW5       30.25S WCI  13
RIFLE          CLOUDY    23   6  48 CALM      30.26S
DELTA          CLOUDY    32   7  35 CALM      30.26F
NUCLA          CLOUDY    32   5  32 CALM      30.28S
$$

COZ017>023-064>068-090100-
...SOUTHWEST COLORADO...

CITY           SKY/WX    TMP DP  RH WIND       PRES   REMARKS
DURANGO        CLOUDY    33   8  35 E5        30.27F WCI  29
CORTEZ         CLOUDY    36  15  42 S5        30.27S
PAGOSA SPRINGS CLOUDY    31   9  39 CALM      30.28F
TELLURIDE      CLOUDY    28  17  65 E7        30.24R WCI  20
WOLF CREEK PAS FAIR       9   3  78 SW23G30   30.25R WCI -12
$$

COZ009-010-012-014-032>034-037-058>063-090100-
...CENTRAL COLORADO...

CITY           SKY/WX    TMP DP  RH WIND       PRES   REMARKS
ASPEN          NOT AVBL
BUENA VISTA    CLOUDY    28   8  42 NE17G29   30.11F WCI  16
COPPER MTN     LGT SNOW  16   9  73 MISG      30.07R
BERTHOUD PASS  LGT SNOW   5  -8  56 MISG      30.00S VSB 1
COTTONWOOD PAS LGT SNOW  23  12  63 W15G31    30.07S WCI  10
GUNNISON       FLURRIES  18   5  57 CALM      30.26R
KREMMLING      LGT SNOW  14   9  79 CALM      30.22S
LEADVILLE      SNOW      16  12  84 NE7       30.08S VSB 1/2 WCI   6
MONARCH PASS   LGT SNOW   9   5  85 W32G39    30.22R VSB 3/4 WCI -15
SALIDA         FAIR      32   7  35 SW14G23   30.22S WCI  22
SUNLIGHT       LGT SNOW  10   9  92 SW17G31   30.13S VSB 1   WCI  -7
WILKERSON PASS FAIR      14   5  67 SW21G29   30.06F WCI  -4
$$

COZ069>075-090100-
...SAN LUIS VALLEY/SANGRE DE CRISTO MOUNTAINS...

CITY           SKY/WX    TMP DP  RH WIND       PRES   REMARKS
ALAMOSA        FAIR      23   9  55 NW8       30.22R WCI  14
LA VETA PASS   FAIR      21  10  63 NE20G45   30.12S WCI   6
SAGUACHE       CLOUDY    25   0  33 CALM      30.23S
$$

COZ035-036-038>040-090100-
...NORTHERN COLORADO FRONT RANGE...

CITY           SKY/WX    TMP DP  RH WIND       PRES   REMARKS
DENVER INTL AP MOCLDY     8   3  80 N6        30.26F WCI  -2
DMNS CITY PARK   N/A     11   4  74 NE7       30.28S WCI   0
AURORA         PTCLDY     8   5  86 N5        30.26S WCI   0
FRONT RANGE AP MOCLDY     9   7  92 NW3       30.27
ERIE MUNI ARPT FAIR       9   4  83 CALM      30.30S
BOULDER MUN AP FAIR      10   5  79 CALM      30.28S
CENTENNIAL     MOCLDY    12   6  77 N9        30.23S WCI   0
BROOMFIELD       N/A     10   5  79 N6        30.26F WCI   1
FORT COLLINS   FAIR      10   1  67 CALM      30.32S
LONGMONT       FAIR      11   3  72 CALM      30.33S
$$

COZ041-046-047-076>085-087-088-090100-
...PIKES PEAK/PALMER DIVIDE AND SOUTHERN FOOTHILLS...

CITY           SKY/WX    TMP DP  RH WIND       PRES   REMARKS
COLO. SPRINGS  MOCLDY     9   5  84 S7        30.28F FOG     WCI  -2
A. F. ACADEMY  CLOUDY    10   5  79 S12       30.23S WCI  -4
SCHRIEVER AFB  NOT AVBL
ELLICOTT       LGT RAIN N/A N/A N/A S6          N/A
FALCON         LGT SNOW   7   5  91 S6        30.23S VSB 1   WCI  -3
FORT CARSON    LGT SNOW  10   6  81 S7        30.28S WCI  -1
LIMON          FAIR      10   1  67 S10       30.32S WCI  -4
MONUMENT HILL  FAIR       7   1  78 S13       30.19S WCI  -9
TRINIDAD       FAIR      20   5  52 NE5       30.26S WCI  13
$$

COZ042>045-048>051-090-091-090100-
...NORTHEAST COLORADO...

CITY           SKY/WX    TMP DP  RH WIND       PRES   REMARKS
GREELEY ARPT   FAIR      10   3  73 N3        30.34F
AKRON          FAIR       6  -1  73 SE9       30.36S WCI  -8
BURLINGTON     FAIR      13   2  61 S9        30.44R WCI   1
WRAY           NOT AVBL
STERLING       FAIR      12   3  67 E5        30.40S WCI   4
HOLYOKE        FAIR       9   0  66 SE6       30.47R WCI  -1
FORT MORGAN    FAIR       7   1  77 NE8       30.35F WCI  -6
$$

COZ086-089-092>099-090100-
...SOUTHEAST COLORADO...

CITY           SKY/WX    TMP DP  RH WIND       PRES   REMARKS
PUEBLO         CLOUDY    22   7  52 CALM      30.35S
LA JUNTA       FAIR      23   6  48 SE14      30.38R WCI  11
LAMAR          CLOUDY    20   0  41 E7        30.44S WCI  11
SPRINGFIELD      N/A     19   2  47 SE14      30.41F WCI   6
$$




USA.gov is the U.S. government's official web portal to all federal, state and local government web resources and services.